METEOR 1-13

导读 | 星芒AI

METEOR 1-13 是苏联于1970年代发射的一颗气象卫星,属于 METEOR 系列。该系列卫星主要用于气象观测和地球资源监测,搭载了多种遥感仪器,如可见光和红外传感器,用于收集大气、云层和地表数据。METEOR 1-13 在轨道上运行期间,为苏联的天气预报和环境监测提供了重要数据支持。该卫星采用近极地轨道,确保对全球范围的覆盖。其成功运行标志着苏联在气象卫星技术领域的进步,并为后续气象卫星的发展奠定了基础。

基本信息
目录编号:
6256
目录名称:
METEOR 1-13
国际标识:
1972-085A
轨道中心:
EARTH
卫星名称:
METEOR 1-13
卫星全名:
--
卫星状态:
在轨 (已飞行19361 天)
发射日期:
1972-10-26 UTC
国别 :
俄罗斯(独联体) (CIS)
星等 :
--
轨道信息
数据来源 国际轨道数据 AOE轨道数据
星历时间 2025-10-28T22:56:52+0800
16小时前
查看轨道信息
2025-10-27T06:00:00+0800
2天前
查看轨道信息
半长轴 7239.504km 7239.507km
偏心率 0.0026448 0.0026315
轨道倾角 81.274° 81.272°
近地点辐角 76.527° 81.493°
升交点赤经 17.323° 18.976°
平近点角 283.884° 266.874°
近地点 842.221km 842.321km
远地点 880.517km 880.423km
周期 102.170分钟 102.170分钟
每日圈数 14.094172 14.094165
详细信息
使用方式:
暂无
2D轨道图
3D轨道图
轨道高度分析图
轨道倾角分析图
轨道综合分析图
查看轨道综合分析图